Regional Weather Roundup
Issued by NWS

Home | Current Version | Previous Version | Text Only | Print | Product List | Glossary Off
Versions: 1 2 3 4 5 6 7 8 9 10 11 12 13 14 15 16 17 18 19 20 21 22 23 24 25 26 27 28 29 30 31 32 33 34 35 36 37 38 39 40 41 42 43 44 45 46 47 48 49 50

000
ASUS43 KLMK 260602
RWRKY
KENTUCKY REGIONAL WEATHER ROUNDUP
NATIONAL WEATHER SERVICE LOUISVILLE KY
100 AM EST SUN FEB 26 2017

NOTE "FAIR" INDICATES FEW OR NO CLOUDS BELOW 12,000 FEET
WITH NO SIGNIFICANT WEATHER AND/OR OBSTRUCTIONS TO VISIBILITY.

KYZ001>023-026-027-061>063-070>075-260700-
WESTERN AND SOUTH CENTRAL KENTUCKY

CITY           SKY/WX    TMP DP  RH WIND       PRES   REMARKS
PADUCAH        CLEAR     26  19  74 CALM      30.16S
HENDERSON      CLEAR     27  18  69 CALM      30.16S
OWENSBORO      CLEAR     29  21  72 CALM      30.16R
HOPKINSVILLE   CLEAR     32  19  58 CALM      30.15R
BOWLING GREEN  CLEAR     30  19  63 CALM      30.16R
GLASGOW        NOT AVBL
$$

KYZ024-025-028>034-038-045-046-053-260700-
NORTH CENTRAL KENTUCKY

CITY           SKY/WX    TMP DP  RH WIND       PRES   REMARKS
LOUISVILLE/SDF CLEAR     30  16  56 W8        30.13R WCI  22
LOUISVILLE/LOU CLEAR     30  18  60 W5        30.13R WCI  25
FORT KNOX      CLEAR     25  17  72 W3        30.10S
$$

KYZ035>037-039>044-047>052-055>060-089>105-260700-
NORTHEAST KENTUCKY

CITY           SKY/WX    TMP DP  RH WIND       PRES   REMARKS
LEXINGTON      CLEAR     27  18  69 S6        30.10S WCI  20
COVINGTON      CLEAR     27  17  66 SW5       30.06S WCI  22
FRANKFORT      CLEAR     26  17  68 SW5       30.09S WCI  20
$$

KYZ054-064>069-076>088-106>120-260700-
SOUTHEAST KENTUCKY

CITY           SKY/WX    TMP DP  RH WIND       PRES   REMARKS
JACKSON        CLOUDY    30  19  63 SW5       30.08S WCI  25
LONDON         CLEAR     28  21  75 CALM      30.11S
SOMERSET       NOT AVBL
MIDDLESBORO    CLEAR     29  23  80 CALM      30.12S
MONTICELLO     CLEAR     19  16  88 MISG      30.15S
$$





USA.gov is the U.S. government's official web portal to all federal, state and local government web resources and services.